Vorticity
nan nan nan nan nan nan nan nan nan nan nan nan nan nan nan nan nan nan nan nan nan nan nan nan nan nan nan nan nan nan nan nan nan nan nan nan nan nan nan nan nan nan nan
nan 5 6 7 7 7 6 7 7 9 10 9 8 8 9 9 7 6 6 6 6 8 8 8 9 8 9 7 11 14 16 11 10 8 9 11 11 11 9 7 9 8 nan
nan 5 6 7 6 7 7 7 6 8 8 9 11 9 10 8 7 6 7 5 7 8 8 8 8 8 10 7 6 8 12 16 13 6 3 5 12 12 13 9 8 9 nan
nan 5 6 6 7 7 7 7 7 8 7 8 8 9 10 7 8 8 6 5 8 8 8 9 8 9 9 7 8 7 8 9 11 13 8 5 10 10 10 13 10 10 nan
nan 5 6 6 7 7 8 8 7 7 7 8 9 8 7 9 7 6 7 10 9 8 9 8 8 9 8 8 7 7 10 11 7 10 15 9 8 10 9 10 12 9 nan
nan 6 6 7 7 7 7 8 8 8 8 7 7 8 7 8 8 8 11 9 9 9 7 8 8 9 7 7 8 7 8 9 10 7 11 16 8 7 7 9 12 10 nan
nan 6 6 8 7 7 8 8 8 8 8 8 8 8 9 10 9 10 8 8 9 7 6 7 9 8 6 8 8 10 10 9 10 6 7 14 13 8 9 8 8 11 nan
nan 6 7 8 7 8 8 8 8 9 8 8 9 9 11 11 8 7 8 10 7 6 6 8 6 6 8 8 9 11 8 9 8 8 8 7 14 12 10 9 8 9 nan
nan 7 7 8 8 8 8 8 9 9 8 9 9 9 9 8 8 8 9 7 7 7 7 8 8 8 9 9 10 9 8 8 9 10 9 10 11 12 12 10 9 8 nan
nan 7 7 8 8 8 9 8 9 8 9 10 10 9 8 9 9 10 9 8 8 7 8 9 9 9 9 9 10 8 8 8 8 9 9 7 6 13 13 12 10 8 nan
nan 8 7 8 8 8 8 9 8 9 9 9 9 9 9 10 10 10 9 9 9 9 9 9 9 10 9 9 9 7 9 9 6 7 9 7 8 7 13 13 11 10 nan
nan 7 7 8 8 8 8 8 8 8 8 8 9 9 10 10 10 9 8 9 10 10 10 9 9 10 10 10 9 9 10 9 9 8 8 8 9 9 7 14 14 9 nan
nan 8 8 8 8 8 8 8 8 8 9 9 9 9 10 10 9 9 10 10 10 10 11 11 10 9 10 10 10 10 9 9 10 10 9 9 7 9 9 8 11 12 nan
nan 7 8 8 8 9 9 9 8 8 9 9 9 9 9 9 10 10 10 10 10 11 11 11 11 10 10 13 11 11 11 10 10 10 10 10 8 5 5 9 12 12 nan
nan 7 8 8 8 9 10 10 10 8 9 9 9 8 9 9 9 10 10 11 11 11 11 11 11 12 13 7 6 9 12 11 10 10 10 12 8 7 2 2 0 10 nan
nan 7 8 8 9 10 10 9 9 9 10 10 9 8 9 9 9 10 10 11 12 11 11 12 11 12 10 3 5 7 13 12 11 9 10 10 14 14 12 6 3 -3 nan
nan 8 10 9 10 9 9 10 10 10 10 10 9 10 10 9 9 9 10 11 11 12 13 12 11 11 8 8 10 10 12 12 11 10 9 8 11 12 17 19 17 10 nan
nan 10 10 9 9 10 11 10 10 10 10 10 10 9 10 10 10 10 9 11 12 13 13 11 12 11 9 8 9 14 15 13 12 13 11 9 6 7 4 12 17 17 nan
nan 10 10 10 9 9 10 9 10 10 10 9 8 9 10 10 11 10 10 12 12 11 12 12 11 9 8 10 9 15 18 13 15 15 14 7 9 6 3 7 7 13 nan
nan 9 10 11 10 10 10 9 9 9 9 8 9 9 10 11 11 10 12 13 10 11 11 10 12 11 10 13 11 12 16 13 15 15 18 17 9 11 7 2 9 8 nan
nan 9 12 12 9 9 11 9 9 9 8 9 10 10 10 12 13 11 12 10 12 12 11 12 12 16 13 8 9 13 9 7 11 12 15 24 16 14 12 4 1 2 nan
nan 12 11 9 9 11 11 10 10 9 9 10 10 10 11 13 11 12 10 12 13 13 12 13 15 14 11 10 10 13 8 7 11 12 8 6 18 18 15 13 5 0 nan
nan 11 10 8 9 11 9 10 11 11 10 9 10 10 12 11 11 11 13 13 13 12 12 12 12 12 13 11 13 20 19 18 15 11 10 9 16 19 21 17 15 14 nan
nan 10 10 10 9 10 10 11 11 11 11 10 11 11 10 11 14 14 13 11 10 9 10 10 11 12 11 12 17 16 17 21 18 12 20 28 22 21 21 20 17 17 nan
nan 10 9 9 9 9 10 10 11 11 11 11 12 12 11 11 13 12 10 9 6 5 7 8 10 11 8 -2 2 15 14 16 15 22 21 20 22 20 17 16 15 13 nan
nan nan nan nan nan nan nan nan nan nan nan nan nan nan nan nan nan nan nan nan nan nan nan nan nan nan nan nan nan nan nan nan nan nan nan nan nan nan nan nan nan nan nan
CAPE
0 0 0 0 0 0 0 0 0 0 0 0 0 0 0 0 0 0 0 0 0 0 0 0 0 3 7 4 6 4 27 1 0 0 0 0 0 0 0 0 39 96 56
0 0 0 0 0 0 0 0 0 0 0 0 0 0 0 0 0 0 0 0 0 0 0 0 0 0 1 3 5 2 5 1 1 0 0 8 7 11 7 8 8 35 89
0 0 0 0 0 0 0 0 0 0 0 0 0 0 0 0 0 0 0 0 0 0 0 0 0 0 0 1 7 5 5 10 1 0 0 3 13 11 11 26 40 13 31
0 0 0 0 0 0 0 0 0 0 0 0 0 0 0 0 0 0 0 0 0 0 0 0 0 0 0 0 0 0 3 7 5 1 5 1 0 1 4 20 36 49 27
0 0 0 0 0 0 0 0 0 0 0 0 0 0 0 0 0 0 0 0 0 0 0 0 0 0 0 0 0 0 2 9 6 9 0 0 0 0 0 12 14 48 73
0 0 0 0 0 0 0 0 0 0 0 0 0 0 0 0 0 0 0 0 0 0 0 0 0 0 0 0 0 0 0 0 8 8 5 1 1 0 0 0 15 17 17
0 0 0 0 0 0 0 0 0 0 0 0 0 0 0 0 0 0 0 0 0 0 0 0 0 0 0 0 0 0 1 1 3 3 6 5 2 0 0 0 1 16 22
0 0 0 0 0 0 0 0 0 0 0 0 0 0 0 0 0 0 0 0 0 0 0 0 0 0 0 0 0 0 1 1 6 7 10 6 11 2 0 0 0 13 19
0 0 0 0 0 0 0 0 0 0 0 0 0 0 0 0 0 1 1 0 0 0 0 1 1 0 0 0 0 0 0 1 1 2 5 11 1 22 0 4 0 0 8
0 0 0 0 0 0 0 0 0 0 0 0 0 0 0 0 0 1 2 4 2 1 1 2 3 3 1 0 0 0 0 0 1 2 2 6 5 1 11 2 11 1 0
0 0 0 0 0 0 0 0 0 0 0 0 0 0 0 1 1 2 2 2 5 7 2 2 4 4 4 1 0 0 0 0 0 0 0 0 1 0 3 4 1 1 0
0 0 0 0 0 0 0 0 0 0 0 0 0 0 1 1 2 2 2 3 3 5 6 6 3 4 4 5 2 1 1 0 0 0 0 0 0 3 4 13 4 0 0
0 0 0 0 0 0 0 0 0 0 1 1 1 0 1 2 2 2 3 3 4 4 4 6 11 5 5 7 5 4 3 2 0 0 0 0 0 0 0 0 13 0 0
0 0 0 0 0 0 0 0 0 0 0 1 1 1 2 2 4 4 4 6 5 6 5 6 7 10 6 7 7 6 6 5 3 8 7 1 0 0 1 1 0 16 0
0 0 0 0 0 0 0 0 0 0 0 2 0 0 1 3 4 5 5 6 6 8 7 13 11 12 11 9 6 10 11 9 8 13 7 13 13 6 5 1 0 5 1
0 0 0 0 0 0 0 0 0 0 2 3 3 2 1 2 4 5 6 6 6 6 8 8 15 12 18 15 21 27 29 35 34 17 9 11 14 11 14 11 2 0 11
0 0 0 0 0 0 1 0 0 1 0 1 1 2 8 11 6 5 5 6 6 7 7 10 16 15 19 19 25 27 21 29 33 34 18 9 8 20 14 6 1 0 0
0 0 0 0 0 0 0 0 0 0 0 1 1 2 1 5 11 13 4 4 8 13 26 22 12 18 14 20 28 24 25 39 37 37 31 10 9 18 24 18 16 0 0
0 0 0 0 0 0 0 0 0 0 0 0 2 1 3 3 6 5 6 15 24 20 21 21 14 20 15 20 27 30 34 48 52 45 44 33 11 7 17 33 15 26 2
0 0 0 0 0 0 0 0 0 0 0 0 1 2 4 3 3 7 6 14 28 25 22 14 11 11 24 11 27 33 39 54 72 58 39 42 20 18 21 28 34 10 3
0 0 0 0 0 0 0 0 0 0 0 0 2 2 3 4 5 6 10 14 16 17 18 14 18 16 19 25 27 33 35 46 63 71 60 43 36 25 21 29 26 24 0
0 0 0 1 1 0 2 1 0 0 0 0 1 1 2 6 8 5 12 9 11 14 15 16 14 30 27 13 15 45 36 35 60 82 66 57 55 25 21 18 29 21 13
0 0 1 1 0 0 0 0 0 0 1 2 1 2 4 3 2 16 10 12 12 18 18 18 26 24 27 15 14 58 49 49 51 70 54 64 65 78 34 22 23 28 16
0 0 1 1 0 0 0 0 1 1 4 5 3 5 5 4 7 15 13 14 17 15 19 25 25 29 29 18 53 85 82 66 64 24 38 30 46 64 55 43 19 34 21
0 0 1 0 0 0 0 0 0 0 1 7 7 13 10 8 8 12 9 13 11 18 22 20 29 22 24 16 110 73 67 89 72 75 46 60 51 36 61 40 31 43 21
1 2 0 0 0 0 0 0 0 0 0 3 8 11 15 8 8 6 6 4 9 15 19 31 36 23 37 67 69 67 83 71 73 42 37 30 24 47 33 30 29 7 38